Regional Weather Roundup
Issued by NWS Green Bay, WI

Home | Current Version | Previous Version | Graphics & Text | Print | Product List | Glossary Off
Versions: 1 2 3 4 5 6 7 8 9 10 11 12 13 14 15 16 17 18 19 20 21 22 23 24 25 26 27 28 29 30 31 32 33 34 35 36 37 38 39 40 41 42 43 44 45 46 47 48 49 50

000
ASUS43 KGRB 210900
RWRGRB

NORTH-CENTRAL AND NORTHEAST WISCONSIN REGIONAL WEATHER ROUNDUP
NATIONAL WEATHER SERVICE GREEN BAY WI
300 AM CST SAT JAN 21 2017

WIZ005-009-010>012-018-019-211000-
NORTH CENTRAL WISCONSIN

CITY           SKY/WX    TMP DP  RH WIND       PRES   REMARKS
IRONWOOD       CLOUDY    35  33  92 SE7       29.57F
MANITOWISH WTR NOT AVBL
ARBOR VITAE    NOT AVBL
EAGLE RIVER    NOT AVBL
LAND O LAKES   NOT AVBL
RHINELANDER    CLOUDY    33  33 100 SE8       29.58F FOG
PHILLIPS       CLOUDY    32  32 100 SE6       29.55F FOG
ANTIGO         NOT AVBL
TOMAHAWK       NOT AVBL
MERRILL        CLOUDY    33  33 100 SE6         N/A  FOG
$$

WIZ013-073-211000-
NORTHEAST WISCONSIN

CITY           SKY/WX    TMP DP  RH WIND       PRES   REMARKS
IRON MOUNTAIN  CLOUDY    32  30  92 CALM      29.60F FOG
MARINETTE      NOT AVBL
$$

WIZ017-030-035>037-045-211000-
CENTRAL WISCONSIN

CITY           SKY/WX    TMP DP  RH WIND       PRES   REMARKS
MEDFORD        NOT AVBL
WAUSAU         FOG       32  32 100 E9        29.56F VSB 3/4
MOSINEE        NOT AVBL
MARSHFIELD     FOG       33  32  96 E10       29.53F VSB 1/4
WISC RAPIDS    CLOUDY    34  34 100 E8        29.56F FOG
STEVENS POINT  NOT AVBL
WAUPACA        NOT AVBL
SHAWANO        NOT AVBL
CLINTONVILLE   CLOUDY    32  32 100 NE5       29.61F FOG
WAUTOMA        FOG       34  34 100 E6        29.58F VSB 1/2
$$

WIZ038-039-048-051-211000-
FOX VALLEY

CITY           SKY/WX    TMP DP  RH WIND       PRES   REMARKS
NWS GREEN BAY  CLOUDY    36  36 100 E5        29.62F FOG
APPLETON       NOT AVBL
OSHKOSH        LGT RAIN  34  34 100 E6        29.59F VSB 1/4
FOND DU LAC    CLOUDY    37  34  89 E6        29.58F FOG
$$

WIZ022-050-052-211000-
EAST CENTRAL WISCONSIN

CITY           SKY/WX    TMP DP  RH WIND       PRES   REMARKS
EPHRAIM        NOT AVBL
WASHINGTON ISL NOT AVBL
STURGEON BAY   LGT RAIN  35  34  96 E5        29.64F VSB 1
MANITOWOC      NOT AVBL
SHEBOYGAN      LGT RAIN  36  35  96 E5        29.61F VSB 1/4
$$

LMZ563-521-522-541>543-211000-
LAKESHORE

STATION/POSITION TIME  TEMP    WIND        PRES    VSBY  WAVE
                       AIR SEA DIR/SP/G                  HT/PER
                 (UTC) (F)     (DEG/KT/KT) (MB)    (MI)  (FT/S)
SHEBOYGAN LKSHOR 0800   37     100/ 11/ 11 1003.7F
KEWAUNEE LKSHORE 0830   36     110/  6/  8 1003.5F
NORTHPORT PIER   0840   32        CALM     1004.4F
SISTER BAY LKSHO 0805   34     170/  5/  7   N/A
$$




USA.gov is the U.S. government's official web portal to all federal, state and local government web resources and services.